,,,PA_Meas_PMT16A,,PR_Meas_QMR101_102,,RH_Meas_QMH101,,SR_Meas_QMS101,,TA_Meas_QMH101,,GenWind,,GenWind,
date,time,status,PA,status,PR,status,RH,status,SR,status,TA,status,DirAvg,status,SpdAvg,
2010-06-30, 00:00:05,VALID,1004.57,VALID,0,VALID,81.9494,VALID,0,VALID,26.0401,VALID,57,VALID,0.177734,
2010-06-30, 00:01:05,VALID,1004.57,VALID,0,VALID,82.1173,VALID,0,VALID,26.0226,VALID,34,VALID,0.796484,
2010-06-30, 00:02:05,VALID,1004.62,VALID,0,VALID,82.3004,VALID,0,VALID,25.9817,VALID,12,VALID,0.625391,
2010-06-30, 00:03:05,VALID,1004.63,VALID,0,VALID,82.369,VALID,0,VALID,25.9622,VALID,45,VALID,0.00195313,
2010-06-30, 00:04:05,VALID,1004.66,VALID,0,VALID,82.4682,VALID,0,VALID,25.9427,VALID,70,VALID,0.673828,
2010-06-30, 00:05:05,VALID,1004.66,VALID,0,VALID,82.514,VALID,0,VALID,25.9427,VALID,66,VALID,0.502734,
2010-06-30, 00:06:05,VALID,1004.67,VALID,0,VALID,82.5597,VALID,0,VALID,25.9642,VALID,26,VALID,0.462891,
2010-06-30, 00:07:05,VALID,1004.63,VALID,0,VALID,82.6818,VALID,0,VALID,25.9232,VALID,54,VALID,0.509375,
2010-06-30, 00:08:05,VALID,1004.63,VALID,0,VALID,82.4682,VALID,0,VALID,25.9427,VALID,67,VALID,0.330469,
2010-06-30, 00:09:05,VALID,1004.62,VALID,0,VALID,82.6208,VALID,0,VALID,25.9427,VALID,38,VALID,0.554688,
2010-06-30, 00:10:05,VALID,1004.63,VALID,0,VALID,82.7886,VALID,0,VALID,25.9232,VALID,8,VALID,0.673437,
2010-06-30, 00:11:05,VALID,1004.63,VALID,0,VALID,82.9107,VALID,0,VALID,25.8843,VALID,20,VALID,0.618359,
2010-06-30, 00:12:05,VALID,1004.61,VALID,0,VALID,82.9259,VALID,0,VALID,25.8843,VALID,35,VALID,0.383984,
2010-06-30, 00:13:05,VALID,1004.62,VALID,0,VALID,82.8954,VALID,0,VALID,25.8648,VALID,35,VALID,0.148047,
2010-06-30, 00:14:05,VALID,1004.6,VALID,0,VALID,83.1243,VALID,0,VALID,25.8453,VALID,51,VALID,0.346875,
2010-06-30, 00:15:05,VALID,1004.57,VALID,0,VALID,83.1624,VALID,0,VALID,25.8473,VALID,16,VALID,0.405469,
2010-06-30, 00:16:05,VALID,1004.57,VALID,0,VALID,83.1548,VALID,0.100563,VALID,25.8044,VALID,16,VALID,0.252734,
2010-06-30, 00:17:05,VALID,1004.55,VALID,0,VALID,83.2616,VALID,0.100563,VALID,25.785,VALID,21,VALID,0.336328,
2010-06-30, 00:18:05,VALID,1004.5,VALID,0,VALID,83.3608,VALID,0,VALID,25.7655,VALID,350,VALID,0.613281,
2010-06-30, 00:19:05,VALID,1004.5,VALID,0,VALID,83.4676,VALID,0,VALID,25.746,VALID,356,VALID,0.182422,
2010-06-30, 00:20:05,VALID,1004.49,VALID,0,VALID,83.5362,VALID,0,VALID,25.7246,VALID,356,VALID,0.261328,
2010-06-30, 00:21:05,VALID,1004.48,VALID,0,VALID,83.643,VALID,0,VALID,25.7265,VALID,356,VALID,0.337109,
2010-06-30, 00:22:05,VALID,1004.44,VALID,0,VALID,83.5973,VALID,0,VALID,25.7265,VALID,358,VALID,0.528516,
2010-06-30, 00:23:05,VALID,1004.45,VALID,0,VALID,83.5896,VALID,0.100563,VALID,25.746,VALID,357,VALID,0.595703,
2010-06-30, 00:24:05,VALID,1004.44,VALID,0,VALID,83.6812,VALID,0.100563,VALID,25.7265,VALID,359,VALID,0.217187,
2010-06-30, 00:25:05,VALID,1004.44,VALID,0,VALID,83.7117,VALID,0,VALID,25.6856,VALID,359,VALID,0.0078125,
2010-06-30, 00:26:05,VALID,1004.43,VALID,0,VALID,83.8719,VALID,0,VALID,25.6876,VALID,359,VALID,0,
2010-06-30, 00:27:05,VALID,1004.44,VALID,0,VALID,84.0703,VALID,0,VALID,25.6292,VALID,359,VALID,0,
2010-06-30, 00:28:05,VALID,1004.44,VALID,0,VALID,84.3907,VALID,0.100563,VALID,25.5493,VALID,359,VALID,0,
2010-06-30, 00:29:05,VALID,1004.44,VALID,0,VALID,84.8026,VALID,0,VALID,25.4734,VALID,359,VALID,0.45,
2010-06-30, 00:30:05,VALID,1004.4,VALID,0,VALID,85.4587,VALID,0,VALID,25.3565,VALID,359,VALID,0.539844,
2010-06-30, 00:31:05,VALID,1004.39,VALID,0,VALID,85.7334,VALID,0,VALID,25.337,VALID,35,VALID,1.20156,
2010-06-30, 00:32:05,VALID,1004.37,VALID,0,VALID,85.7028,VALID,0.100563,VALID,25.3565,VALID,42,VALID,0,
2010-06-30, 00:33:05,VALID,1004.38,VALID,0,VALID,85.7791,VALID,0,VALID,25.2786,VALID,42,VALID,0,
2010-06-30, 00:34:05,VALID,1004.35,VALID,0,VALID,86.0385,VALID,0,VALID,25.2592,VALID,33,VALID,0.639063,
2010-06-30, 00:35:05,VALID,1004.36,VALID,0,VALID,86.0995,VALID,0.100563,VALID,25.2592,VALID,33,VALID,0.2875,
2010-06-30, 00:36:05,VALID,1004.38,VALID,0,VALID,86.1606,VALID,0.100563,VALID,25.1988,VALID,33,VALID,0.255469,
2010-06-30, 00:37:05,VALID,1004.39,VALID,0,VALID,86.2903,VALID,0,VALID,25.1813,VALID,33,VALID,0.379297,
2010-06-30, 00:38:05,VALID,1004.39,VALID,0,VALID,86.4276,VALID,0.100563,VALID,25.1813,VALID,37,VALID,0.230469,
2010-06-30, 00:39:05,VALID,1004.37,VALID,0,VALID,86.4734,VALID,0.100563,VALID,25.1637,VALID,37,VALID,0.229687,
2010-06-30, 00:40:05,VALID,1004.37,VALID,0,VALID,86.7404,VALID,0.100563,VALID,25.0644,VALID,37,VALID,0.447266,
2010-06-30, 00:41:05,VALID,1004.33,VALID,0,VALID,87.0455,VALID,0,VALID,25.0255,VALID,37,VALID,0.333594,
2010-06-30, 00:42:05,VALID,1004.35,VALID,0,VALID,87.2896,VALID,0.100563,VALID,25.0255,VALID,44,VALID,0.339453,
2010-06-30, 00:43:05,VALID,1004.32,VALID,0,VALID,87.3278,VALID,0.100563,VALID,25.0041,VALID,45,VALID,0.54375,
2010-06-30, 00:44:05,VALID,1004.33,VALID,0,VALID,87.3049,VALID,0,VALID,25.0469,VALID,47,VALID,0.548437,
2010-06-30, 00:45:05,VALID,1004.31,VALID,0,VALID,87.1981,VALID,0.100563,VALID,25.0644,VALID,91,VALID,0.278125,
2010-06-30, 00:46:05,VALID,1004.31,VALID,0,VALID,87.015,VALID,0,VALID,25.1072,VALID,83,VALID,0.404297,
2010-06-30, 00:47:05,VALID,1004.3,VALID,0,VALID,86.8472,VALID,0,VALID,25.1053,VALID,83,VALID,0.0945313,
2010-06-30, 00:48:05,VALID,1004.28,VALID,0,VALID,86.687,VALID,0,VALID,25.1442,VALID,55,VALID,0.436719,
2010-06-30, 00:49:05,VALID,1004.27,VALID,0,VALID,86.5115,VALID,0,VALID,25.2007,VALID,62,VALID,0.933984,
2010-06-30, 00:50:05,VALID,1004.26,VALID,0,VALID,85.947,VALID,0,VALID,25.3584,VALID,13,VALID,0.602344,
2010-06-30, 00:51:05,VALID,1004.25,VALID,0,VALID,85.4435,VALID,0,VALID,25.3955,VALID,14,VALID,0.474609,
2010-06-30, 00:52:05,VALID,1004.21,VALID,0,VALID,85.2299,VALID,0,VALID,25.4753,VALID,15,VALID,0.523438,
2010-06-30, 00:53:05,VALID,1004.22,VALID,0,VALID,85.1307,VALID,0,VALID,25.4558,VALID,15,VALID,0.216016,
2010-06-30, 00:54:05,VALID,1004.2,VALID,0,VALID,85.123,VALID,0,VALID,25.4558,VALID,15,VALID,0.330078,
2010-06-30, 00:55:05,VALID,1004.18,VALID,0,VALID,85.1765,VALID,0,VALID,25.4363,VALID,15,VALID,0.217578,
2010-06-30, 00:56:05,VALID,1004.17,VALID,0,VALID,85.3595,VALID,0,VALID,25.3974,VALID,15,VALID,0.345313,
2010-06-30, 00:57:05,VALID,1004.17,VALID,0,VALID,85.4663,VALID,0,VALID,25.3584,VALID,20,VALID,0.243359,
2010-06-30, 00:58:05,VALID,1004.18,VALID,0,VALID,85.5732,VALID,0,VALID,25.3176,VALID,20,VALID,0.197656,
2010-06-30, 00:59:05,VALID,1004.16,VALID,0,VALID,85.7334,VALID,0,VALID,25.3214,VALID,20,VALID,0.0273438,
2010-06-30, 01:00:05,VALID,1004.14,VALID,0,VALID,85.8783,VALID,0,VALID,25.3195,VALID,33,VALID,0.302344,
2010-06-30, 01:01:05,VALID,1004.11,VALID,0,VALID,85.9088,VALID,0,VALID,25.3,VALID,42,VALID,0.16875,
2010-06-30, 01:02:05,VALID,1004.16,VALID,0,VALID,85.9699,VALID,0,VALID,25.3195,VALID,61,VALID,0.325781,
2010-06-30, 01:03:05,VALID,1004.15,VALID,0,VALID,85.7944,VALID,0,VALID,25.339,VALID,33,VALID,0,
2010-06-30, 01:04:05,VALID,1004.16,VALID,0,VALID,85.6647,VALID,0,VALID,25.339,VALID,33,VALID,0.269141,
2010-06-30, 01:05:05,VALID,1004.11,VALID,0,VALID,85.8859,VALID,0,VALID,25.2611,VALID,33,VALID,0.337109,
2010-06-30, 01:06:05,VALID,1004.09,VALID,0,VALID,86.3666,VALID,0,VALID,25.1988,VALID,22,VALID,0.794922,
2010-06-30, 01:07:05,VALID,1004.08,VALID,0,VALID,86.0995,VALID,0,VALID,25.2806,VALID,26,VALID,0.633984,
2010-06-30, 01:08:05,VALID,1004.06,VALID,0,VALID,86.0233,VALID,0,VALID,25.2592,VALID,26,VALID,0.578125,
2010-06-30, 01:09:05,VALID,1004.06,VALID,0,VALID,86.214,VALID,0,VALID,25.2611,VALID,30,VALID,0.853906,
2010-06-30, 01:10:05,VALID,1004.07,VALID,0,VALID,85.9699,VALID,0,VALID,25.2786,VALID,18,VALID,0.502344,
2010-06-30, 01:11:05,VALID,1004.03,VALID,0,VALID,85.9699,VALID,0,VALID,25.2611,VALID,18,VALID,0.446094,
2010-06-30, 01:12:05,VALID,1004.02,VALID,0,VALID,86.3971,VALID,0,VALID,25.2027,VALID,356,VALID,0.570703,
2010-06-30, 01:13:05,VALID,1004.03,VALID,0,VALID,86.5573,VALID,0,VALID,25.1442,VALID,357,VALID,0,
2010-06-30, 01:14:05,VALID,1004.02,VALID,0,VALID,86.8167,VALID,0,VALID,25.0858,VALID,10,VALID,0.173047,
2010-06-30, 01:15:05,VALID,1004.01,VALID,0,VALID,86.9845,VALID,0,VALID,25.0858,VALID,13,VALID,0.833984,
2010-06-30, 01:16:05,VALID,1003.98,VALID,0,VALID,87.1066,VALID,0,VALID,25.1248,VALID,3,VALID,1.06094,
2010-06-30, 01:17:05,VALID,1004,VALID,0,VALID,86.5649,VALID,0,VALID,25.2416,VALID,23,VALID,0.76875,
2010-06-30, 01:18:05,VALID,1003.98,VALID,0,VALID,85.8096,VALID,0,VALID,25.4344,VALID,23,VALID,0.849219,
2010-06-30, 01:19:05,VALID,1003.95,VALID,0,VALID,85.1154,VALID,0,VALID,25.5337,VALID,14,VALID,0.509375,
2010-06-30, 01:20:05,VALID,1003.94,VALID,0,VALID,84.8713,VALID,0,VALID,25.5921,VALID,351,VALID,0.837891,
2010-06-30, 01:21:05,VALID,1003.94,VALID,0,VALID,84.5127,VALID,0,VALID,25.6506,VALID,357,VALID,0.657422,
2010-06-30, 01:22:05,VALID,1003.9,VALID,0,VALID,84.1313,VALID,0,VALID,25.7285,VALID,30,VALID,1.22227,
2010-06-30, 01:23:05,VALID,1003.87,VALID,0,VALID,83.8414,VALID,0,VALID,25.785,VALID,25,VALID,0.407031,
2010-06-30, 01:24:05,VALID,1003.88,VALID,0,VALID,83.6659,VALID,0,VALID,25.7674,VALID,25,VALID,0.096875,
2010-06-30, 01:25:05,VALID,1003.86,VALID,0,VALID,83.7422,VALID,0,VALID,25.748,VALID,356,VALID,1.78047,
2010-06-30, 01:26:05,VALID,1003.85,VALID,0,VALID,83.3226,VALID,0,VALID,25.8648,VALID,13,VALID,0.628125,
2010-06-30, 01:27:05,VALID,1003.88,VALID,0,VALID,83.1701,VALID,0,VALID,25.9038,VALID,15,VALID,0.818359,
2010-06-30, 01:28:05,VALID,1003.88,VALID,0,VALID,83.1167,VALID,0,VALID,25.8823,VALID,36,VALID,0.7375,
2010-06-30, 01:29:05,VALID,1003.85,VALID,0,VALID,83.0556,VALID,0,VALID,25.9232,VALID,3,VALID,0.585156,
2010-06-30, 01:30:05,VALID,1003.85,VALID,0,VALID,82.9107,VALID,0,VALID,25.9427,VALID,354,VALID,0.271875,
2010-06-30, 01:31:05,VALID,1003.88,VALID,0,VALID,82.7581,VALID,0,VALID,25.9817,VALID,351,VALID,0.664844,
2010-06-30, 01:32:05,VALID,1003.91,VALID,0,VALID,82.6742,VALID,0,VALID,26.0206,VALID,59,VALID,0.374219,
2010-06-30, 01:33:05,VALID,1003.92,VALID,0,VALID,82.6589,VALID,0,VALID,26.0012,VALID,56,VALID,0.325,
2010-06-30, 01:34:05,VALID,1003.93,VALID,0,VALID,82.5369,VALID,0,VALID,26.0206,VALID,18,VALID,0.853516,
2010-06-30, 01:35:05,VALID,1003.95,VALID,0,VALID,82.4529,VALID,0,VALID,26.0401,VALID,23,VALID,0.33125,
2010-06-30, 01:36:05,VALID,1003.96,VALID,0,VALID,82.4758,VALID,0,VALID,25.9797,VALID,43,VALID,0.225,
2010-06-30, 01:37:05,VALID,1003.98,VALID,0,VALID,82.6284,VALID,0,VALID,25.9622,VALID,43,VALID,0.0117188,
2010-06-30, 01:38:05,VALID,1003.99,VALID,0,VALID,82.842,VALID,0,VALID,25.9213,VALID,43,VALID,0.351953,
2010-06-30, 01:39:05,VALID,1003.99,VALID,0,VALID,83.1243,VALID,0,VALID,25.8648,VALID,43,VALID,0.360156,
2010-06-30, 01:40:05,VALID,1003.97,VALID,0,VALID,83.4523,VALID,0,VALID,25.785,VALID,43,VALID,0.221484,
2010-06-30, 01:41:05,VALID,1003.99,VALID,0,VALID,83.6736,VALID,0,VALID,25.6876,VALID,43,VALID,0.327344,
2010-06-30, 01:42:05,VALID,1004,VALID,0,VALID,84.1008,VALID,0,VALID,25.5707,VALID,43,VALID,0,
2010-06-30, 01:43:05,VALID,1004,VALID,0,VALID,84.5356,VALID,0,VALID,25.4734,VALID,43,VALID,0,
2010-06-30, 01:44:04,VALID,1003.99,VALID,0,VALID,85.0849,VALID,0,VALID,25.3779,VALID,43,VALID,0,
2010-06-30, 01:45:04,VALID,1003.98,VALID,0,VALID,85.6266,VALID,0,VALID,25.2806,VALID,43,VALID,0,
2010-06-30, 01:46:04,VALID,1004,VALID,0,VALID,86.069,VALID,0,VALID,25.1618,VALID,43,VALID,0.0898438,
2010-06-30, 01:47:04,VALID,1003.96,VALID,0,VALID,86.5268,VALID,0,VALID,25.0644,VALID,43,VALID,0.222656,
2010-06-30, 01:48:04,VALID,1003.99,VALID,0,VALID,87.0226,VALID,0,VALID,24.9866,VALID,43,VALID,0.196875,
2010-06-30, 01:49:04,VALID,1003.97,VALID,0,VALID,87.4422,VALID,0,VALID,24.9087,VALID,43,VALID,0.241406,
2010-06-30, 01:50:04,VALID,1003.98,VALID,0,VALID,87.8466,VALID,0,VALID,24.8911,VALID,43,VALID,0.3125,
2010-06-30, 01:51:04,VALID,1003.98,VALID,0,VALID,87.9534,VALID,0,VALID,24.8132,VALID,40,VALID,0.414063,
2010-06-30, 01:52:04,VALID,1003.97,VALID,0,VALID,88.4798,VALID,0,VALID,24.7529,VALID,40,VALID,0,
2010-06-30, 01:53:04,VALID,1003.97,VALID,0,VALID,88.6094,VALID,0,VALID,24.7548,VALID,40,VALID,0.45,
2010-06-30, 01:54:04,VALID,1003.94,VALID,0,VALID,88.7544,VALID,0,VALID,24.6964,VALID,40,VALID,0.160547,
2010-06-30, 01:55:04,VALID,1003.95,VALID,0,VALID,89.2426,VALID,0,VALID,24.6769,VALID,40,VALID,0.180469,
2010-06-30, 01:56:04,VALID,1003.96,VALID,0,VALID,89.2121,VALID,0,VALID,24.6769,VALID,40,VALID,0.107031,
2010-06-30, 01:57:04,VALID,1003.98,VALID,0,VALID,89.2808,VALID,0,VALID,24.6574,VALID,40,VALID,0.29375,
2010-06-30, 01:58:04,VALID,1004,VALID,0,VALID,89.4028,VALID,0,VALID,24.6166,VALID,40,VALID,0.33125,
2010-06-30, 01:59:04,VALID,1003.96,VALID,0,VALID,89.7614,VALID,0,VALID,24.599,VALID,61,VALID,0.317969,
2010-06-30, 02:00:04,VALID,1003.94,VALID,0,VALID,89.9216,VALID,0,VALID,24.5601,VALID,61,VALID,0,
2010-06-30, 02:01:04,VALID,1003.96,VALID,0,VALID,90.2725,VALID,0,VALID,24.5406,VALID,61,VALID,0,
2010-06-30, 02:02:04,VALID,1003.93,VALID,0,VALID,91.3024,VALID,0.100563,VALID,24.5193,VALID,61,VALID,0,
2010-06-30, 02:03:04,VALID,1003.94,VALID,0,VALID,92.8435,VALID,0.100563,VALID,24.5388,VALID,72,VALID,0.269531,
2010-06-30, 02:04:04,VALID,1003.93,VALID,0,VALID,93.08,VALID,0.100563,VALID,24.5388,VALID,77,VALID,0.203516,
2010-06-30, 02:05:04,VALID,1003.94,VALID,0,VALID,93.0418,VALID,0.100563,VALID,24.5582,VALID,82,VALID,0.447266,
2010-06-30, 02:06:04,VALID,1003.94,VALID,0,VALID,92.2332,VALID,0.100563,VALID,24.5582,VALID,82,VALID,0.393359,
2010-06-30, 02:07:04,VALID,1003.96,VALID,0,VALID,92.1569,VALID,0.100563,VALID,24.5777,VALID,82,VALID,0.480078,
2010-06-30, 02:08:04,VALID,1004,VALID,0,VALID,91.7831,VALID,0,VALID,24.6361,VALID,82,VALID,0.496484,
2010-06-30, 02:09:04,VALID,1004.01,VALID,0,VALID,90.2497,VALID,0,VALID,24.6945,VALID,82,VALID,0.280469,
2010-06-30, 02:10:04,VALID,1004.03,VALID,0,VALID,89.8758,VALID,0.100563,VALID,24.7316,VALID,82,VALID,0.397266,
2010-06-30, 02:11:04,VALID,1004.05,VALID,0,VALID,89.4181,VALID,0.100563,VALID,24.8308,VALID,82,VALID,0.449219,
2010-06-30, 02:12:04,VALID,1004.04,VALID,0,VALID,88.8536,VALID,0,VALID,24.8679,VALID,82,VALID,0.176172,
2010-06-30, 02:13:04,VALID,1004.04,VALID,0,VALID,88.4798,VALID,0,VALID,24.9495,VALID,82,VALID,0.273047,
2010-06-30, 02:14:04,VALID,1004.04,VALID,0,VALID,88.2967,VALID,0.100563,VALID,24.9068,VALID,82,VALID,0.0972656,
2010-06-30, 02:15:04,VALID,1004.01,VALID,0,VALID,88.2356,VALID,0,VALID,24.9282,VALID,42,VALID,0.557422,
2010-06-30, 02:16:04,VALID,1004.02,VALID,0,VALID,88.1365,VALID,0,VALID,24.93,VALID,19,VALID,0.771875,
2010-06-30, 02:17:04,VALID,1004,VALID,0,VALID,88.0602,VALID,0,VALID,24.8697,VALID,10,VALID,0.630078,
2010-06-30, 02:18:04,VALID,1004,VALID,0,VALID,88.4187,VALID,0,VALID,24.7724,VALID,10,VALID,0.717188,
2010-06-30, 02:19:04,VALID,1004,VALID,0,VALID,89.1664,VALID,0,VALID,24.7159,VALID,8,VALID,0.533594,
2010-06-30, 02:20:04,VALID,1004.03,VALID,0,VALID,89.7843,VALID,0,VALID,24.6769,VALID,8,VALID,0.538281,
2010-06-30, 02:21:04,VALID,1004.05,VALID,0,VALID,89.4868,VALID,0.100563,VALID,24.5777,VALID,8,VALID,0,
2010-06-30, 02:22:04,VALID,1004.01,VALID,0,VALID,89.8224,VALID,0,VALID,24.4998,VALID,8,VALID,0.422266,
2010-06-30, 02:23:04,VALID,1004,VALID,0,VALID,90.6998,VALID,0,VALID,24.4414,VALID,8,VALID,0.376953,
2010-06-30, 02:24:04,VALID,1003.97,VALID,0,VALID,93.7589,VALID,0,VALID,24.4025,VALID,8,VALID,0.383203,
2010-06-30, 02:25:04,VALID,1003.97,VALID,0,VALID,94.5218,VALID,0,VALID,24.383,VALID,11,VALID,0.317969,
2010-06-30, 02:26:04,VALID,1003.98,VALID,0,VALID,95.6204,VALID,0,VALID,24.3617,VALID,12,VALID,0.625391,
2010-06-30, 02:27:04,VALID,1003.97,VALID,0,VALID,96.574,VALID,0.100563,VALID,24.3636,VALID,21,VALID,0.374219,
2010-06-30, 02:28:04,VALID,1003.96,VALID,0,VALID,97.2377,VALID,0,VALID,24.383,VALID,35,VALID,0.605859,
2010-06-30, 02:29:04,VALID,1003.95,VALID,0,VALID,97.4971,VALID,0.100563,VALID,24.4609,VALID,90,VALID,0.326562,
2010-06-30, 02:30:04,VALID,1003.97,VALID,0,VALID,96.4596,VALID,0.100563,VALID,24.5212,VALID,13,VALID,0.442187,
2010-06-30, 02:31:04,VALID,1003.95,VALID,0,VALID,93.9039,VALID,0,VALID,24.5388,VALID,13,VALID,0.192578,
2010-06-30, 02:32:04,VALID,1003.97,VALID,0,VALID,91.9967,VALID,0,VALID,24.5193,VALID,13,VALID,0.328516,
2010-06-30, 02:33:04,VALID,1003.94,VALID,0,VALID,92.7596,VALID,0.100563,VALID,24.4998,VALID,13,VALID,0.292578,
2010-06-30, 02:34:04,VALID,1003.93,VALID,0,VALID,95.0864,VALID,0,VALID,24.498,VALID,13,VALID,0.430078,
2010-06-30, 02:35:04,VALID,1003.94,VALID,0,VALID,94.5371,VALID,0,VALID,24.5601,VALID,13,VALID,0.153906,
2010-06-30, 02:36:04,VALID,1003.94,VALID,0,VALID,92.729,VALID,0.100563,VALID,24.5582,VALID,13,VALID,0,
2010-06-30, 02:37:04,VALID,1003.95,VALID,0,VALID,92.3018,VALID,0,VALID,24.5777,VALID,13,VALID,0,
2010-06-30, 02:38:04,VALID,1003.97,VALID,0,VALID,91.9738,VALID,0,VALID,24.599,VALID,13,VALID,0,
2010-06-30, 02:39:04,VALID,1003.96,VALID,0,VALID,91.127,VALID,0,VALID,24.5777,VALID,13,VALID,0,
2010-06-30, 02:40:04,VALID,1003.94,VALID,0,VALID,91.5618,VALID,0,VALID,24.5193,VALID,13,VALID,0,
2010-06-30, 02:41:04,VALID,1003.94,VALID,0,VALID,93.0113,VALID,0,VALID,24.4998,VALID,13,VALID,0,
2010-06-30, 02:42:04,VALID,1003.94,VALID,0,VALID,95.0406,VALID,0.100563,VALID,24.4998,VALID,13,VALID,0,
2010-06-30, 02:43:04,VALID,1003.97,VALID,0,VALID,94.2167,VALID,0.100563,VALID,24.498,VALID,24,VALID,0,
2010-06-30, 02:44:04,VALID,1003.96,VALID,0,VALID,93.881,VALID,0.100563,VALID,24.498,VALID,24,VALID,0,
2010-06-30, 02:45:04,VALID,1003.97,VALID,0,VALID,94.7965,VALID,0,VALID,24.5388,VALID,24,VALID,0,
2010-06-30, 02:46:04,VALID,1003.98,VALID,0,VALID,93.8886,VALID,0,VALID,24.5601,VALID,351,VALID,0.496484,
2010-06-30, 02:47:04,VALID,1003.98,VALID,0,VALID,92.195,VALID,0,VALID,24.5582,VALID,351,VALID,0.201953,
2010-06-30, 02:48:04,VALID,1003.99,VALID,0,VALID,91.2414,VALID,0,VALID,24.5582,VALID,351,VALID,0.278516,
2010-06-30, 02:49:04,VALID,1003.98,VALID,0,VALID,91.4779,VALID,0,VALID,24.5212,VALID,357,VALID,0.467187,
2010-06-30, 02:50:04,VALID,1003.95,VALID,0,VALID,92.9732,VALID,0,VALID,24.4822,VALID,360,VALID,0.526172,
2010-06-30, 02:51:04,VALID,1003.92,VALID,0,VALID,94.1099,VALID,0,VALID,24.4025,VALID,360,VALID,0.6625,
2010-06-30, 02:52:04,VALID,1003.9,VALID,0,VALID,96.0018,VALID,0,VALID,24.4025,VALID,360,VALID,0.664844,
2010-06-30, 02:53:04,VALID,1003.87,VALID,0,VALID,96.2536,VALID,0,VALID,24.3441,VALID,360,VALID,0.578906,
2010-06-30, 02:54:04,VALID,1003.88,VALID,0,VALID,96.902,VALID,0,VALID,24.307,VALID,360,VALID,0.719531,
2010-06-30, 02:55:04,VALID,1003.84,VALID,0,VALID,98.2676,VALID,0,VALID,24.2273,VALID,20,VALID,1.05938,
2010-06-30, 02:56:04,VALID,1003.87,VALID,0,VALID,98.7253,VALID,0,VALID,24.3246,VALID,24,VALID,0.901563,
2010-06-30, 02:57:04,VALID,1003.87,VALID,0,VALID,98.3363,VALID,0,VALID,24.4025,VALID,359,VALID,0.673828,
2010-06-30, 02:58:04,VALID,1003.87,VALID,0,VALID,97.8251,VALID,0,VALID,24.383,VALID,360,VALID,0.60625,
2010-06-30, 02:59:04,VALID,1003.86,VALID,0,VALID,97.9625,VALID,0,VALID,24.4433,VALID,13,VALID,0.596094,
2010-06-30, 03:00:04,VALID,1003.86,VALID,0,VALID,96.4901,VALID,0,VALID,24.4804,VALID,13,VALID,0.258203,
2010-06-30, 03:01:04,VALID,1003.86,VALID,0,VALID,94.1022,VALID,0,VALID,24.5017,VALID,13,VALID,0.373828,
2010-06-30, 03:02:04,VALID,1003.88,VALID,0,VALID,92.668,VALID,0,VALID,24.4609,VALID,13,VALID,0.160938,
2010-06-30, 03:03:04,VALID,1003.88,VALID,0,VALID,92.3552,VALID,0,VALID,24.4238,VALID,13,VALID,0.096875,
2010-06-30, 03:04:04,VALID,1003.88,VALID,0,VALID,93.4919,VALID,0,VALID,24.3849,VALID,13,VALID,0.223438,
2010-06-30, 03:05:04,VALID,1003.91,VALID,0,VALID,95.9942,VALID,0,VALID,24.3459,VALID,13,VALID,0.4,
2010-06-30, 03:06:04,VALID,1003.9,VALID,0,VALID,97.2835,VALID,0,VALID,24.2857,VALID,13,VALID,0.242969,
2010-06-30, 03:07:04,VALID,1003.89,VALID,0,VALID,97.726,VALID,0,VALID,24.2662,VALID,13,VALID,0.185547,
2010-06-30, 03:08:04,VALID,1003.86,VALID,0,VALID,98.2142,VALID,0.100563,VALID,24.2468,VALID,13,VALID,0.381641,
2010-06-30, 03:09:04,VALID,1003.86,VALID,0,VALID,98.6033,VALID,0,VALID,24.2486,VALID,13,VALID,0.289453,
2010-06-30, 03:10:04,VALID,1003.83,VALID,0,VALID,98.7482,VALID,0,VALID,24.2078,VALID,13,VALID,0.337891,
2010-06-30, 03:11:04,VALID,1003.87,VALID,0,VALID,98.9084,VALID,0,VALID,24.1671,VALID,13,VALID,0.365234,
2010-06-30, 03:12:04,VALID,1003.85,VALID,0,VALID,98.8856,VALID,0,VALID,24.1513,VALID,13,VALID,0.2875,
2010-06-30, 03:13:04,VALID,1003.85,VALID,0,VALID,98.9313,VALID,0,VALID,24.0716,VALID,13,VALID,0.33125,
2010-06-30, 03:14:04,VALID,1003.85,VALID,0,VALID,99.0076,VALID,0,VALID,24.0326,VALID,13,VALID,0.101172,
2010-06-30, 03:15:04,VALID,1003.82,VALID,0,VALID,99.2822,VALID,0,VALID,24.0132,VALID,13,VALID,0.261719,
2010-06-30, 03:16:04,VALID,1003.82,VALID,0,VALID,99.4653,VALID,0,VALID,24.015,VALID,18,VALID,0.481641,
2010-06-30, 03:17:04,VALID,1003.8,VALID,0,VALID,99.595,VALID,0,VALID,23.9937,VALID,18,VALID,0.462109,
2010-06-30, 03:18:04,VALID,1003.79,VALID,0,VALID,99.679,VALID,0,VALID,23.9937,VALID,29,VALID,0.766016,
2010-06-30, 03:19:04,VALID,1003.8,VALID,0,VALID,99.7324,VALID,0,VALID,23.9937,VALID,29,VALID,0.348437,
2010-06-30, 03:20:04,VALID,1003.77,VALID,0,VALID,99.6484,VALID,0,VALID,23.9955,VALID,12,VALID,0.977734,
2010-06-30, 03:21:04,VALID,1003.77,VALID,0,VALID,99.7324,VALID,0,VALID,24.015,VALID,359,VALID,0.266797,
2010-06-30, 03:22:04,VALID,1003.78,VALID,0,VALID,99.7018,VALID,0,VALID,24.0168,VALID,5,VALID,0.403516,
2010-06-30, 03:23:04,VALID,1003.8,VALID,0,VALID,99.74,VALID,0,VALID,24.0132,VALID,23,VALID,0.455469,
2010-06-30, 03:24:04,VALID,1003.8,VALID,0,VALID,99.7247,VALID,0,VALID,24.0132,VALID,60,VALID,0.217187,
2010-06-30, 03:25:04,VALID,1003.81,VALID,0,VALID,99.7095,VALID,0,VALID,24.0345,VALID,60,VALID,0.290625,
2010-06-30, 03:26:04,VALID,1003.83,VALID,0,VALID,99.7171,VALID,0,VALID,24.0734,VALID,49,VALID,0.221875,
2010-06-30, 03:27:04,VALID,1003.79,VALID,0,VALID,99.6866,VALID,0,VALID,24.0734,VALID,49,VALID,0.258594,
2010-06-30, 03:28:04,VALID,1003.8,VALID,0,VALID,99.6866,VALID,0,VALID,24.091,VALID,49,VALID,0.322656,
2010-06-30, 03:29:04,VALID,1003.79,VALID,0,VALID,99.6027,VALID,0,VALID,24.091,VALID,38,VALID,0.357812,
2010-06-30, 03:30:04,VALID,1003.81,VALID,0,VALID,99.6332,VALID,0,VALID,24.091,VALID,354,VALID,0.6,
2010-06-30, 03:31:04,VALID,1003.81,VALID,0,VALID,99.6027,VALID,0,VALID,24.1689,VALID,9,VALID,1.0375,
2010-06-30, 03:32:04,VALID,1003.82,VALID,0,VALID,99.3891,VALID,0,VALID,24.2273,VALID,17,VALID,1.03516,
2010-06-30, 03:33:04,VALID,1003.83,VALID,0,VALID,98.733,VALID,0,VALID,24.4822,VALID,25,VALID,0.560156,
2010-06-30, 03:34:04,VALID,1003.81,VALID,0,VALID,91.8822,VALID,0,VALID,24.638,VALID,13,VALID,0.758594,
2010-06-30, 03:35:04,VALID,1003.83,VALID,0,VALID,89.7461,VALID,0,VALID,24.714,VALID,6,VALID,0.626953,
2010-06-30, 03:36:04,VALID,1003.8,VALID,0,VALID,89.2426,VALID,0,VALID,24.714,VALID,6,VALID,0.765234,
2010-06-30, 03:37:04,VALID,1003.84,VALID,0,VALID,88.8612,VALID,0,VALID,24.7548,VALID,6,VALID,0.474219,
2010-06-30, 03:38:04,VALID,1003.85,VALID,0,VALID,88.0907,VALID,0,VALID,24.8308,VALID,11,VALID,0.867578,
2010-06-30, 03:39:04,VALID,1003.83,VALID,0,VALID,87.6406,VALID,0,VALID,24.9282,VALID,15,VALID,0.801953,
2010-06-30, 03:40:04,VALID,1003.85,VALID,0,VALID,87.816,VALID,0,VALID,24.8716,VALID,15,VALID,0.725781,
2010-06-30, 03:41:04,VALID,1003.82,VALID,0,VALID,88.0449,VALID,0,VALID,24.8113,VALID,25,VALID,1.25586,
2010-06-30, 03:42:04,VALID,1003.83,VALID,0,VALID,87.694,VALID,0,VALID,24.93,VALID,3,VALID,1.12734,
2010-06-30, 03:43:04,VALID,1003.83,VALID,0,VALID,87.2591,VALID,0,VALID,24.9476,VALID,14,VALID,0.751172,
2010-06-30, 03:44:04,VALID,1003.8,VALID,0,VALID,87.3125,VALID,0,VALID,24.93,VALID,25,VALID,0.912109,
2010-06-30, 03:45:04,VALID,1003.82,VALID,0,VALID,87.2439,VALID,0,VALID,24.9495,VALID,15,VALID,0.775781,
2010-06-30, 03:46:04,VALID,1003.85,VALID,0,VALID,87.4346,VALID,0,VALID,24.8873,VALID,13,VALID,0.785547,